Showing default

IOD1_STARTICAL, 63212

Orbit data source: Space-Track

IOD1_STARTICAL, 63212 is a Spanish payload satellite in SSO that was launched on Sat, 15 Mar 2025 UTC via an FALCON 9 launch vehicle from the Air Force Western Test Range (AFWTR). Payload-class satellites include a variety of spacecraft equipped with specific instruments for various scientific and technological missions. These include communications satellites like Starlink; space stations such as the ISS; scientific satellites like the Hubble; Earth observation satellites from companies like Planet Labs, Umbra, and HawkEye 360; GPS; miniature CubeSats for education and research; and military/defense satellites.

Loading next visibility...
Identifier
63212, 2025-052C
Orbit
SSO
Country
Flag of ESES / SPN
Related business
Manufacturer
GOMSpace
Mission
Operational Commercial Communications
Bus & Motor
CUBESAT 16U, Unknown motor
Mass
20 kg wet, 20 kg dry
Launch date (UTC)
2025-03-15 (2 years ago)
Launch vehicle
FALCON 9
Launch site
Air Force Western Test Range (AFWTR)
Object type
Payload
Rocket body
Debris
Shape & HBR
Box + 2 Pan + 1 Ant, 0.4 m
Radar Cross Section
0.152 m², Medium (>0.1 m² and < 1m²)

Expand to show TLE details & history
Last TLE update: 17 hours ago

TLE from 17 hours ago
0 IOD1_STARTICAL
1 63212U 25052C   26265.28747389  .00181304  00000-0  13570-2 0  9992
2 63212  97.3649 170.8617 0008563 113.1346 247.0820 15.72081173 85635
Epoch: 2026-09-22T06:53Z
TLE epoch observation values (Epoch: 2026-09-22T06:53:57.744Z)
Latitude
-0.00005°
Longitude
66.21599°
Altitude
358.361 km
Speed
7.693 km/s
True Right ascension
11h 23m 26s
True Declination
0° 00' 00"
Sunlit
Object was in daylight at epoch
Visualization orbit readout
Latitude
Unknown
Longitude
Unknown
Altitude
Unknown
Speed
Unknown
Apparent Right ascension
Unknown
Apparent Declination
Unknown
Sunlit
N/A
Visualization observer readout
Local Sidereal Time
17:13:40
Azimuth
Unknown
Elevation
Unknown
Doppler factor
Unknown
Orbital elements
Apogee altitude
355.606 km
Perigee altitude
344.084 km
Semi-major axis
6,727.982 km
Eccentricity
0.00086
Inclination
97.3649°
RAAN
170.8617°
Arg. of periapsis
113.1346°
True anomaly
246.99166°
Mean anomaly
247.082°
Eccentric anomaly
247.03683°
Mean motion
3.93293 °/min
Orbital period
91.53 mins
BSTAR
0.001357
Loading maneuver chart data...
Computing Atmospheric mass density...
Loading historical data...
Loading historical data...
Loading historical data...
Loading historical data...
Loading historical data...
Loading historical data...
Loading historical data...

Documentation

Showing up to 5 results
|